Tracking 26240 objects as of 6-Oct-2022
HD Live streaming from Space Station
objects crossing your sky now

STARLINK-3327

Track STARLINK-3327 now!
10-day predictions
STARLINK-3327 is classified as:


NORAD ID: 50819
Int'l Code: 2022-001S
Perigee: 545.3 km
Apogee: 548.5 km
Inclination: 53.2 °
Period: 95.4 minutes
Semi major axis: 6917 km
RCS: Unknown
Launch date: January 6, 2022
Source: United States (US)
Launch site: AIR FORCE EASTERN TEST RANGE (AFETR)
aabbcc
Your satellite tracking list
Your tracking list is empty




NASA's NSSDC Master Catalog

Two Line Element Set (TLE):
1 50819U 22001S   22278.56023485 -.00001205  00000-0 -57618-4 0  9993
2 50819  53.2218  25.6642 0002342  48.0701 312.0490 15.08838666 41535
Source of the keplerian elements: AFSPC